Tracking 23758 objects as of 28-Oct-2021
HD Live streaming from Space Station
objects crossing your sky now

OBJECT BE

Track OBJECT BE now!
10-day predictions


NORAD ID: 43810
Int'l Code: 2018-099BE
Perigee: 577.3 km
Apogee: 596.3 km
Inclination: 97.6 °
Period: 96.3 minutes
Semi major axis: 6957 km
RCS: Unknown
Launch date: December 3, 2018
Source: (TBD)
Launch site: AIR FORCE WESTERN TEST RANGE (AFWTR)
aabbcc
Your satellite tracking list
Your tracking list is empty




NASA's NSSDC Master Catalog

Two Line Element Set (TLE):
1 43810U 18099BE  21300.89199436  .00000982  00000-0  92839-4 0  9992
2 43810  97.6403   7.4625 0013654 328.8395  31.2014 14.95869518157851
Source of the keplerian elements: AFSPC